OpenBCM V1.13 (Linux)

Packet Radio Mailbox

DB0FHN

[JN59NK Nuernberg]

 Login: GUEST





  
LU9DCE > KEPLER   03.03.19 21:34l 255 Lines 12469 Bytes #999 (0) @ WW
BID : 19526_LU9DCE
Read: DF7EAV DK3UZ GUEST
Subj: TLE 03 03
Path: DB0FHN<DB0BLO<DB0ERF<OK0NAG<OK0PBR<OK2PEN<VE2PKT<LU3DVN<LU9DCE
Sent: 190303/1814Z 19526@LU9DCE.TOR.BA.ARG.SOAM LinBPQ6.0.18

            __    _  _  ___  ____   ___  ____    ____  ____  ____
           (  )  / )( \/ _ \(    \ / __)(  __)  (  _ \(  _ \/ ___)
           / (_/\) \/ (\__  )) D (( (__  ) _)    ) _ ( ) _ (\___ \
           \____/\____/(___/(____/ \___)(____)  (____/(____/(____/
               ESTACION DE PACKET RADIO - BUENOS AIRES (GF05OM)
                   BOLETINES INFORMATIVOS PROGRAMADOS (BIP)
                  SOPORTE TECNICO - HELLOCODELINUX@GMAIL.COM

+----------------------------------------------------------------------------+
OSCAR 7
1  7530U 74089B   19061.89201775 -.00000032  00000-0  78649-4 0  9993
2  7530 101.7299  30.7194 0011990 193.9281 222.9042 12.53637015 27017
OSCAR 11 (UoSAT 2)
1 14781U 84021B   19061.61513588 +.00000052 +00000-0 +12593-4 0  9991
2 14781 097.6226 091.3787 0007463 322.9468 037.1230 14.83066553861747
OSCAR 19 (LUSAT)
1 20442U 90005G   19061.78593560 -.00000004  00000-0  14650-4 0  9991
2 20442  98.6383   4.0309 0012857 105.8821 254.3780 14.32918530520928
EYESAT A
1 22825U 93061C   19061.54101502  .00000001  00000-0  18575-4 0  9994
2 22825  98.8948  47.7575 0007713 320.0068  40.0545 14.30052317326497
ITAMSAT
1 22826U 93061D   19062.19741009 -.00000004  00000-0  16360-4 0  9993
2 22826  98.8888  48.4329 0008044 305.4716  54.5714 14.30385302326784
RADIO ROSTO
1 23439U 94085A   19061.59001701 -.00000015 +00000-0 +79340-3 0  9990
2 23439 064.8161 290.9443 0148659 133.9319 268.9193 11.27568017995708
JAS 2
1 24278U 96046B   19061.44400675 -.00000038 +00000-0 -42057-5 0  9991
2 24278 098.5203 229.6266 0350779 160.6445 200.8410 13.53089547112916
TECHSAT 1B
1 25397U 98043D   19061.87863703 -.00000026  00000-0  77258-5 0  9992
2 25397  98.6788   3.3898 0001592  34.2281 325.9000 14.23660986 72533
ISS (ZARYA)
1 25544U 98067A   19062.62517361  .00002022  00000-0  39578-4 0  9991
2 25544  51.6418 166.0768 0003768  72.4852 131.2020 15.52763153158857
PCSAT
1 26931U 01043C   19062.11195097 -.00000007  00000-0  28927-4 0  9990
2 26931  67.0501 281.2870 0005343 272.7020  87.3469 14.30533776909582
SAUDISAT 1C
1 27607U 02058C   19062.19039989 -.00000029  00000-0  16867-4 0  9997
2 27607  64.5563  18.2608 0082251 276.9785  82.1967 14.75523832871177
CUTE-1
1 27844U 03031E   19062.01022450  .00000048  00000-0  41200-4 0  9997
2 27844  98.6866  71.8202 0009511 349.3641  10.7335 14.22162541812981
CUBESAT XI 4
1 27848U 03031J   19061.69029410  .00000034  00000-0  35395-4 0  9990
2 27848  98.6947  71.9799 0009644   1.6597 358.4611 14.21759734812795
MOZHAYETS 4
1 27939U 03042A   19062.40037013  .00000157  00000-0  36642-4 0  9993
2 27939  98.0205 200.4218 0013903  52.8659 307.3823 14.66758114824816
CUBESAT XI 5
1 28895U 05043F   19061.90465437  .00000094  00000-0  26863-4 0  9991
2 28895  97.9403 208.4402 0016085 336.1710  23.8747 14.63634363711714
CUTE-1.7+APD II
1 32785U 08021C   19062.51594325  .00000202  00000-0  27519-4 0  9990
2 32785  97.5485  67.2966 0011578 256.9078 103.0847 14.88256931587741
DELFI C3
1 32789U 08021G   19061.77353044  .00001137  00000-0  80532-4 0  9994
2 32789  97.4790 114.6319 0013604 130.8456 229.3954 15.06683388590717
SEEDS
1 32791U 08021J   19061.84130170  .00000397  00000-0  45782-4 0  9993
2 32791  97.5301  72.4979 0012148 233.2417 126.7687 14.90743453588047
YUBELEINY
1 32953U 08025A   19062.35939413  .00000020  00000-0  75656-4 0  9997
2 32953  82.5029 211.4933 0019090   6.5418 353.5914 12.43087860488971
PRISM (HITOMI)
1 33493U 09002B   19062.55333335  .00000215  00000-0  24515-4 0  9990
2 33493  98.1230 339.4527 0015059 173.8022 186.3388 14.96524243549121
KKS-1 (KISEKI)
1 33499U 09002H   19061.84470162  .00000091  00000-0  21431-4 0  9993
2 33499  98.3548 257.0674 0009078 182.2075 177.9095 14.75410332543322
SWISSCUBE
1 35932U 09051B   19062.13617299  .00000102  00000-0  34103-4 0  9991
2 35932  98.5737 225.0342 0008582 131.2291 228.9647 14.56248604501120
BEESAT
1 35933U 09051C   19062.00848009  .00000078  00000-0  28571-4 0  9997
2 35933  98.5769 226.6057 0006624 141.6037 218.5633 14.56342229501212
ITUPSAT 1
1 35935U 09051E   19061.45429696  .00000057  00000-0  24231-4 0  9990
2 35935  98.5881 226.2805 0008911 142.0330 218.1496 14.55507026500891
XIWANG-1 (HOPE-1)
1 36122U 09072B   19061.73302679 -.00000048  00000-0 -16296-4 0  9998
2 36122 100.0734  69.1921 0006727 232.2861 127.7632 13.16348347442676
TISAT 1
1 36799U 10035E   19061.97500633  .00000313  00000-0  37713-4 0  9995
2 36799  98.1382 210.6633 0013564  81.2139 279.0613 14.91015462468718
JUGNU
1 37839U 11058B   19059.06871781 +.00000302 +00000-0 +18780-4 0  9990
2 37839 019.9609 285.6082 0018918 187.4608 337.3249 14.12642504381482
SRMSAT
1 37841U 11058D   19062.13926108  .00000307  00000-0  23590-4 0  9999
2 37841  19.9726 321.5382 0011953  95.6777  53.8684 14.10625280381491
M-CUBED/EXP-1 PRIME
1 37855U 11061F   19062.18627303  .00000740  00000-0  45179-4 0  9996
2 37855 101.7278 262.5244 0174386  35.3764 325.8871 15.05167346400600
HORYU 2
1 38340U 12025D   19061.56176216 +.00000169 +00000-0 +32818-4 0  9991
2 38340 098.3430 096.8308 0012817 107.6085 252.6524 14.75672964354804
STRAND 1
1 39090U 13009E   19062.55271264  .00000012  00000-0  19507-4 0  9993
2 39090  98.4987 270.2369 0008100 244.5888 115.4459 14.35072592315023
SOMP
1 39134U 13015E   19061.78754514  .00001681  00000-0  87067-4 0  9996
2 39134  64.8647   9.9451 0020590 321.1960  38.7687 15.19857277324193
BEESAT 3
1 39135U 13015F   19062.17917577  .00000905  00000-0  55083-4 0  9992
2 39135  64.8708  25.4968 0009848 284.5043  75.4991 15.17234322323930
BEESAT 2
1 39136U 13015G   19061.31928010  .00001179  00000-0  69831-4 0  9992
2 39136  64.8705  31.7629 0011033 289.1575  70.8356 15.16669510323734
CUBEBUG 1
1 39153U 13018D   19062.50763662  .00000189  00000-0  31559-4 0  9992
2 39153  97.9752 161.2735 0017001 181.3719 178.7449 14.80519055315957
ZACUBE
1 39417U 13066B   19062.55578271  .00000228  00000-0  34973-4 0  9990
2 39417  97.5693  82.0419 0059608  26.6526 333.7730 14.81062206285184
TRITON 1
1 39427U 13066M   19061.54263444  .00000158  00000-0  32999-4 0  9990
2 39427  97.6653  45.6760 0114554 151.1389 209.6218 14.67785334282478
GOMX 1
1 39430U 13066Q   19062.44663962  .00000114  00000-0  29981-4 0  9992
2 39430  97.7317  26.1489 0149805 232.2667 126.4884 14.59202232280968
HUMSAT D
1 39433U 13066T   19061.78224532  .00000200  00000-0  24933-4 0  9995
2 39433  97.5693 113.6151 0029416 302.0684  57.7679 14.92093532286988
CUBEBUG 2
1 39440U 13066AA  19061.54231507  .00000220  00000-0  37306-4 0  9997
2 39440  97.6008  66.3773 0081823  76.6167 284.4149 14.75799205284026
FUNCUBE 1
1 39444U 13066AE  19062.54754803  .00000268  00000-0  39251-4 0  9994
2 39444  97.5683  83.8698 0058583  21.1097 339.2515 14.81869807284065
UWE-3
1 39446U 13066AG  19061.73164182  .00000216  00000-0  35207-4 0  9991
2 39446  97.5837  73.4291 0071288  53.1595 307.6126 14.78334382283312
SPROUT
1 39770U 14029E   19062.52398943  .00000636  00000-0  76711-4 0  9994
2 39770  97.8779 166.5788 0010420  81.4988 278.7410 14.87195048258901
UNISAT 6
1 40012U 14033C   19062.21231818  .00000152  00000-0  29915-4 0  9990
2 40012  97.7740 293.3478 0059816  84.6538 276.1492 14.73932094252857
DUCHIFAT 1
1 40021U 14033M   19062.33887088  .00000483  00000-0  55221-4 0  9995
2 40021  97.9222 346.6007 0014070  48.0262 312.2152 14.90534569255554
QB50P1
1 40025U 14033R   19061.76977334  .00000252  00000-0  32809-4 0  9990
2 40025  97.9068 341.6310 0013741  57.8901 302.3648 14.88874382255265
CHUBUSAT 1
1 40300U 14070C   19062.29004850  .00000621  00000-0  30120-4 0  9994
2 40300  97.3384 139.1490 0021535  73.8045 326.9088 15.21930131239683
NUDT-PHONESAT
1 40900U 15049B   19062.38968416  .00001929  00000-0  86609-4 0  9999
2 40900  97.4405  72.7988 0012369 193.8822 275.4700 15.22323214191336
ZDPS 2A
1 40901U 15049C   19062.53861506  .00000970  00000-0  51667-4 0  9990
2 40901  97.4607  69.9223 0012288 209.9801 269.7158 15.17529007190982
ZDPS 2B
1 40902U 15049D   19062.48879021  .00000889  00000-0  47890-4 0  9998
2 40902  97.4532  67.5124 0012515 207.5609 304.3007 15.17303926190953
XW-2A
1 40903U 15049E   19062.42605807  .00002103  00000-0  52224-4 0  9990
2 40903  97.3538 104.5207 0013948 165.2912 320.1208 15.41417369193722
KAITUO 1A
1 40904U 15049F   19062.49710265  .00000229  00000-0  15666-4 0  9999
2 40904  97.4659  66.3576 0013400 214.4420 263.9730 15.15256750190767
OBJECT G
1 40905U 15049G   19062.56775932  .00000101  00000-0  90938-5 0  9995
2 40905  97.4681  64.1138 0014658 207.6005 269.5586 15.14191365190661
XW-2C
1 40906U 15049H   19062.51860642  .00000482  00000-0  28873-4 0  9994
2 40906  97.4662  66.3924 0013941 205.4187 273.2596 15.15524697190762
XW-2D
1 40907U 15049J   19062.57491369  .00000429  00000-0  25963-4 0  9995
2 40907  97.4642  66.1266 0013221 201.9855 275.6924 15.15699985190788
LILACSAT 2
1 40908U 15049K   19062.45329916  .00000087  00000-0  84712-5 0  9999
2 40908  97.4768  65.0154 0014858 209.0025 308.1065 15.13710633190585
XW-2F
1 40910U 15049M   19062.30681380  .00000738  00000-0  40626-4 0  9990
2 40910  97.4629  67.6476 0014122 196.2178 289.0620 15.17055710190732
XW-2B
1 40911U 15049N   19062.40330638  .00000861  00000-0  48696-4 0  9991
2 40911  97.4669  66.5784 0013054 203.1726 266.7739 15.15637444190659
KAITUO 1B
1 40912U 15049P   19062.49942480  .00000987  00000-0  49870-4 0  9999
2 40912  97.4515  71.2566 0014842 179.8397 302.6385 15.19338094191033
TIANWANG 1C (TW-1C)
1 40926U 15051B   19062.41699206  .00013162  00000-0  20932-3 0  9990
2 40926  97.1524 108.8169 0009970  57.1198  68.1950 15.53371193193493
